Fullerton, CA

9:05 PM PDT on June 28, 2017 (GMT -0700)
Fullerton Municipal

Weather History for KFUL - January, 2014

Change the Weather History Date:

Saturday, January 25, 2014

  Actual Average Record
Temperature  
Mean Temperature 66 °F 56 °F  
Max Temperature 76 °F 68 °F 86 °F (2003)
Min Temperature 56 °F 45 °F 38 °F (2002)
Degree Days  
Heating Degree Days 0 9  
Month to date heating degree days 80 225  
Since 1 July heating degree days 361 665  
Cooling Degree Days 1 0  
Month to date cooling degree days 14 0  
Year to date cooling degree days 14 0  
Growing Degree Days 16 (Base 50)    
Moisture  
Dew Point 47 °F    
Average Humidity 51    
Maximum Humidity 77    
Minimum Humidity 25    
Precipitation  
Precipitation 0.00 in 0.06 in 0.71 in (2008)
Month to date precipitation 0.00 2.57  
Year to date precipitation 0.00 2.57  
Since 1 July precipitation 1.31  
Snow  
Snow 0.00 in - - ()
Month to date snowfall 0.0  
Year to date snowfall 0.0  
Snow Depth 0.00 in    
Sea Level Pressure  
Sea Level Pressure 30.15 in    
Wind  
Wind Speed 3 mph (South)    
Max Wind Speed 12 mph    
Max Gust Speed -    
Visibility 9 miles    
Events      
T = Trace of Precipitation, MM = Missing Value Source: NWS Daily Summary

Daily Weather History Graph

Daily Weather History Graph

Search for Another Location

Airport or City:

Trip Planner

Search our weather history database for the weather conditions in past years. The results will help you decide how hot, cold, wet, or windy it might be!

Date:

Astronomy

Jan. 25, 2014 Rise Set
Actual Time 6:52 AM PST 5:15 PM PST
Civil Twilight 6:26 AM PST 5:42 PM PST
Nautical Twilight 5:56 AM PST 6:12 PM PST
Astronomical Twilight 5:26 AM PST 6:42 PM PST
Moon 1:31 AM PST (1/25) 12:19 PM PST (1/25)
Length of Visible Light 11h 16m
Length of Day
10h 22m
Waning Crescent, 33% of the Moon is Illuminated
Jan 25
Waning Crescent
Jan 30
New
Feb 6
First Quarter
Feb 14
Full
Feb 22
Last Quarter

Hourly Weather History & Observations

Time (PST) Temp. Dew Point Humidity Pressure Visibility Wind Dir Wind Speed Gust Speed Precip Events Conditions
12:53 AM 62.1 °F 50.0 °F 65% 30.15 in 9.0 mi Calm Calm - N/A   Overcast
1:53 AM 62.1 °F 50.0 °F 65% 30.16 in 9.0 mi Calm Calm - N/A   Overcast
2:53 AM 61.0 °F 51.1 °F 70% 30.16 in 8.0 mi Calm Calm - N/A   Overcast
3:53 AM 60.1 °F 51.1 °F 72% 30.16 in 9.0 mi Calm Calm - N/A   Mostly Cloudy
4:53 AM 57.0 °F 50.0 °F 77% 30.17 in 9.0 mi Calm Calm - N/A   Partly Cloudy
5:53 AM 57.0 °F 50.0 °F 77% 30.18 in 8.0 mi Calm Calm - N/A   Mostly Cloudy
6:53 AM 57.0 °F 50.0 °F 77% 30.19 in 8.0 mi South 3.5 mph - N/A   Clear
7:53 AM 59.0 °F 51.1 °F 75% 30.20 in 6.0 mi ESE 3.5 mph - N/A   Haze
8:53 AM 64.0 °F 44.1 °F 48% 30.20 in 10.0 mi Calm Calm - N/A   Clear
9:53 AM 72.0 °F 39.0 °F 30% 30.20 in 10.0 mi East 3.5 mph - N/A   Clear
10:53 AM 73.9 °F 36.0 °F 25% 30.19 in 10.0 mi SW 4.6 mph - N/A   Clear
11:53 AM 73.9 °F 42.1 °F 32% 30.16 in 10.0 mi SSW 4.6 mph - N/A   Partly Cloudy
12:53 PM 75.9 °F 39.9 °F 27% 30.12 in 10.0 mi SW 6.9 mph - N/A   Clear
1:53 PM 73.0 °F 42.1 °F 33% 30.11 in 10.0 mi SW 9.2 mph - N/A   Scattered Clouds
2:53 PM 73.9 °F 42.1 °F 32% 30.10 in 10.0 mi SSW 6.9 mph - N/A   Mostly Cloudy
3:53 PM 73.0 °F 37.9 °F 28% 30.10 in 10.0 mi SW 4.6 mph - N/A   Clear
4:53 PM 70.0 °F 45.0 °F 41% 30.09 in 10.0 mi SSW 5.8 mph - N/A   Overcast
5:53 PM 66.9 °F 45.0 °F 45% 30.10 in 10.0 mi South 4.6 mph - N/A   Scattered Clouds
6:53 PM 64.9 °F 48.0 °F 54% 30.12 in 10.0 mi Calm Calm - N/A   Scattered Clouds
7:53 PM 63.0 °F 48.9 °F 60% 30.12 in 9.0 mi Calm Calm - N/A   Clear
8:53 PM 61.0 °F 53.1 °F 75% 30.12 in 8.0 mi South 4.6 mph - N/A   Clear
9:53 PM 59.0 °F 51.1 °F 75% 30.13 in 7.0 mi Calm Calm - N/A   Clear
10:53 PM 57.0 °F 51.1 °F 81% 30.13 in 7.0 mi Calm Calm - N/A   Clear
11:53 PM 55.9 °F 50.0 °F 80% 30.14 in 6.0 mi Calm Calm - N/A   Haze